This demonstration page uses our WeatherBlox Daily Observations layout. Learn more.

Left ArrowRight Arrow

34.02893, -84.19858

Hourly Observations for January 22, 2018

Temp ( °F °C ) Dew Point ( °F °C ) Humidity (%) Winds ( mph kmh ) Pressure ( in mb ) Visibility ( mi km ) Precip ( " mm )
12:53 am 00:53 Clear 45 7.2 40 4.4 83 83 Calm 30.16 1021 10 16 0.00 0.00
1:53 am 01:53 Clear 45 7.2 40 4.4 83 83 SE 3 6 30.12 1020 10 16 0.00 0.00
2:53 am 02:53 Clear 45 7.2 40 4.4 83 83 ESE 3 6 30.11 1020 10 16 0.00 0.00
3:53 am 03:53 Clear 47 8.3 40 4.4 77 77 Calm 30.11 1020 10 16 0.00 0.00
4:53 am 04:53 Clear 41 5 38 3.3 89 89 Calm 30.11 1020 10 16 0.00 0.00
5:53 am 05:53 Clear 41 5 38 3.3 89 89 Calm 30.13 1020 10 16 0.00 0.00
6:53 am 06:53 Clear 45 7.2 39 3.9 80 80 E 3 6 30.12 1020 10 16 0.00 0.00
7:53 am 07:53 Mostly Cloudy 47 8.3 40 4.4 77 77 Calm 30.14 1021 10 16 0.00 0.00
8:53 am 08:53 Mostly Sunny 49 9.4 41 5 74 74 E 3 6 30.13 1020 10 16 0.00 0.00
9:22 am 09:22 Mostly Cloudy 51 10.6 42 5.6 71 71 ESE 5 7 30.12 1020 10 16 0.00 0.00
9:53 am 09:53 Mostly Cloudy 53 11.7 45 7.2 74 74 SE 7 11 30.14 1021 10 16 0.00 0.00
10:08 am 10:08 Mostly Cloudy 53 11.7 46 7.8 77 77 SE 6 9 30.12 1020 10 16 0.00 0.00
10:20 am 10:20 Cloudy 53 11.7 47 8.3 80 80 VRB 7 11 30.12 1020 10 16 0.00 0.00
10:53 am 10:53 Cloudy 54 12.2 49 9.4 83 83 VRB 7 11 30.11 1020 9 14 0.00 0.00
11:53 am 11:53 Cloudy with Mist and Fog 54 12.2 51 10.6 90 90 SSE 9 15 30.10 1019 6 10 0.00 0.00
12:53 pm 12:53 Cloudy 57 13.9 53 11.7 87 87 SSE 8 13 30.05 1018 8 13 0.00 0.00
1:53 pm 13:53 Cloudy with Mist and Fog 56 13.3 54 12.2 93 93 VRB 6 9 30.01 1016 5 8 0.00 0.03
2:53 pm 14:53 Cloudy with Mist and Fog 56 13.3 54 12.2 93 93 SE 5 7 30.00 1016 3 5 0.00 0.03
3:03 pm 15:03 Cloudy with Mist and Fog 56 13.3 54 12.2 93 93 SSE 3 6 30.00 1016 3 4 0.00 0.00
3:05 pm 15:05 Cloudy with Mist and Fog 56 13.3 54 12.2 93 93 SSE 3 6 30.00 1016 2 2 0.00 0.00
3:53 pm 15:53 Cloudy with Mist and Fog 56 13.3 54 12.2 93 93 VRB 5 7 29.97 1015 2 2 0.00 0.00
4:06 pm 16:06 Cloudy with Mist and Fog 56 13.3 55 12.8 97 97 Calm 29.97 1015 2 3 0.00 0.00
4:21 pm 16:21 Cloudy with Mist and Fog 56 13.3 55 12.8 97 97 Calm 29.97 1015 3 5 0.00 0.00
4:28 pm 16:28 Cloudy with Mist and Fog 56 13.3 55 12.8 97 97 VRB 3 6 29.94 1014 2 3 0.00 0.00
4:53 pm 16:53 Cloudy with Mist and Fog 57 13.9 55 12.8 93 93 ESE 6 9 29.96 1015 2 3 0.00 0.00
5:00 pm 17:00 Cloudy with Mist and Fog 57 13.9 55 12.8 93 93 SE 3 6 29.94 1014 3 5 0.00 0.00
5:53 pm 17:53 Cloudy with Light Rain 58 14.4 56 13.3 93 93 Calm 29.94 1014 3 5 0.00 0.03
6:00 pm 18:00 Cloudy with Mist and Fog 58 14.4 56 13.3 93 93 SE 6 9 29.94 1014 3 5 0.00 0.03
6:46 pm 18:46 Cloudy with Light Rain 58 14.4 57 13.9 97 97 SSE 9 15 29.94 1014 3 5 0.05 1.27
6:53 pm 18:53 Cloudy with Rain 58 14.4 57 13.9 97 97 SSE 6 9 29.96 1014 4 6 0.06 1.52
7:53 pm 19:53 Cloudy with Rain 59 15 58 14.4 96 96 SSE 7 11 29.93 1013 3 5 0.09 2.29
8:53 pm 20:53 Cloudy with Rain 60 15.6 59 15 96 96 SSE 5 7 29.91 1013 3 4 0.11 2.79
9:07 pm 21:07 Cloudy with Heavy Rain 60 15.6 59 15 96 96 S 8 13 29.88 1012 2 2 0.10 2.54
9:18 pm 21:18 Cloudy with Heavy Rain 60 15.6 59 15 96 96 S 16 26 29.88 1012 3 4 0.15 3.81
9:27 pm 21:27 Cloudy with Light Rain 60 15.6 58 14.4 93 93 S 15 24 29.88 1012 10 16 0.15 3.81
9:35 pm 21:35 Cloudy 60 15.6 58 14.4 93 93 S 14 22 29.88 1012 10 16 0.15 3.81
9:53 pm 21:53 Cloudy 60 15.6 58 14.4 93 93 S 13 20 29.89 1012 10 16 0.15 3.81
10:53 pm 22:53 Cloudy 60 15.6 58 14.4 93 93 SSW 14 22 29.89 1012 10 16 0.00 0.00
11:53 pm 23:53 Cloudy 60 15.6 58 14.4 93 93 SSW 9 15 29.87 1011 10 16 0.00 0.00

Powered by AerisWeather